GW1213 Weather Reports


Display with metric or nautical units.
time (UTC)temp
F
wind
direction
speed
MPH
gust
MPH
rain 1hr
in
rain 24hr
in
rain mn
in
humidity
%
barometer
mb
20260905184041 74 185 1.0 6.0 0.00 0.18 0.18 94 1010.8
20260905183538 74 195 2.0 9.0 0.00 0.18 0.18 94 1011.0
20260905183102 74 217 3.0 9.0 0.00 0.18 0.18 94 1011.1
20260905182537 74 186 2.0 8.0 0.00 0.18 0.18 95 1011.0
20260905182042 74 259 3.0 8.0 0.00 0.18 0.18 95 1010.8
20260905181600 74 225 1.0 5.0 0.00 0.18 0.18 96 1010.9
20260905181039 74 0 0.0 0.0 0.00 0.18 0.18 96 1010.7
20260905180534 73 0 0.0 0.0 0.01 0.18 0.18 96 1010.3
20260905180113 73 0 0.0 0.0 0.01 0.18 0.18 95 1010.2
20260905175537 73 0 0.0 0.0 0.03 0.18 0.18 95 1010.2
20260905175037 73 0 0.0 2.0 0.04 0.18 0.18 95 1010.2
20260905174602 73 0 0.0 4.0 0.05 0.18 0.18 95 1010.2
20260905174038 73 0 1.0 4.0 0.07 0.18 0.18 94 1009.9
20260905173538 73 128 0.0 4.0 0.10 0.18 0.18 95 1010.0
20260905173124 73 0 1.0 4.0 0.16 0.18 0.18 94 1010.1
20260905172536 73 54 0.0 0.0 0.17 0.18 0.18 95 1010.5
20260905172036 73 0 0.0 0.0 0.18 0.18 0.18 95 1010.7
20260905171559 72 0 0.0 0.0 0.18 0.18 0.18 94 1010.8
20260905171036 72 0 0.0 4.0 0.18 0.18 0.18 94 1010.8
20260905170538 72 0 0.0 5.0 0.17 0.17 0.17 94 1010.9
20260905170106 72 63 2.0 5.0 0.17 0.17 0.17 93 1011.0
20260905165536 73 71 3.0 5.0 0.15 0.15 0.15 92 1011.2
20260905165038 73 77 2.0 5.0 0.14 0.14 0.14 91 1011.4
20260905164611 74 65 1.0 3.0 0.13 0.13 0.13 89 1011.7
20260905164038 74 138 0.0 7.0 0.11 0.11 0.11 88 1011.9
20260905163536 75 0 1.0 7.0 0.08 0.08 0.08 86 1012.6
20260905163101 77 240 2.0 7.0 0.02 0.02 0.02 83 1013.0
20260905162538 78 254 1.0 3.0 0.01 0.01 0.01 84 1013.0
20260905162038 78 274 0.0 0.0 0.00 0.00 0.00 83 1012.4
20260905161559 78 0 0.0 0.0 0.00 0.00 0.00 81 1012.2
20260905161037 78 0 0.0 2.0 0.00 0.00 0.00 80 1012.1
20260905160539 79 0 0.0 3.0 0.00 0.00 0.00 79 1012.0
20260905160059 79 0 0.0 3.0 0.00 0.00 0.00 79 1012.0
20260905155538 79 352 1.0 3.0 0.00 0.00 0.00 79 1012.0
20260905155037 79 0 0.0 2.0 0.00 0.00 0.00 79 1012.0
20260905154606 79 0 0.0 2.0 0.00 0.00 0.00 78 1011.9
20260905154038 79 352 0.0 4.0 0.00 0.00 0.00 78 1011.8
20260905153537 79 0 0.0 4.0 0.00 0.00 0.00 78 1011.7
20260905153100 79 346 2.0 4.0 0.00 0.00 0.00 77 1011.6
20260905152538 79 16 1.0 4.0 0.00 0.00 0.00 77 1011.6
20260905152036 80 352 1.0 4.0 0.00 0.00 0.00 77 1011.6
20260905151605 80 360 0.0 4.0 0.00 0.00 0.00 76 1011.6
20260905151038 80 0 0.0 3.0 0.00 0.00 0.00 77 1011.7
20260905150538 80 329 0.0 2.0 0.00 0.00 0.00 77 1011.8
20260905150100 80 352 0.0 2.0 0.00 0.00 0.00 78 1011.9
20260905145540 80 0 0.0 2.0 0.00 0.00 0.00 78 1011.8
20260905145038 80 320 0.0 2.0 0.00 0.00 0.00 78 1011.7
20260905144558 80 323 0.0 2.0 0.00 0.00 0.00 78 1011.9
20260905144034 80 0 0.0 1.0 0.00 0.00 0.00 80 1011.9
20260905143541 80 0 0.0 1.0 0.00 0.00 0.00 80 1011.9
20260905143103 80 331 0.0 1.0 0.00 0.00 0.00 80 1011.9
20260905142537 80 0 0.0 0.0 0.00 0.00 0.00 81 1011.8
20260905142038 80 0 0.0 0.0 0.00 0.00 0.00 79 1011.8
20260905141558 80 0 0.0 2.0 0.00 0.00 0.00 80 1011.7
20260905141040 80 0 0.0 3.0 0.00 0.00 0.00 79 1011.7
20260905140535 80 0 0.0 3.0 0.00 0.00 0.00 79 1011.6
20260905135540 79 0 0.0 0.0 0.00 0.00 0.00 80 1011.5
20260905135036 79 0 0.0 1.0 0.00 0.00 0.00 80 1011.3
20260905134602 79 0 0.0 3.0 0.00 0.00 0.00 81 1011.4
20260905134038 79 0 0.0 3.0 0.00 0.00 0.00 81 1011.2
20260905133538 78 355 1.0 3.0 0.00 0.00 0.00 81 1011.2
20260905133102 78 52 0.0 2.0 0.00 0.00 0.00 82 1011.1
20260905132535 78 0 0.0 2.0 0.00 0.00 0.00 82 1011.2
20260905132041 77 352 0.0 2.0 0.00 0.00 0.00 84 1011.2
20260905131600 76 326 1.0 2.0 0.00 0.00 0.00 85 1011.3
20260905131037 76 0 0.0 5.0 0.00 0.00 0.00 86 1011.3
20260905130540 75 0 0.0 5.0 0.00 0.00 0.00 88 1011.2
20260905130057 75 0 0.0 0.0 0.00 0.00 0.00 88 1011.2
20260905125537 75 0 0.0 0.0 0.00 0.00 0.00 89 1011.2
20260905125037 74 0 0.0 0.0 0.00 0.00 0.00 90 1011.2
20260905124559 74 0 0.0 0.0 0.00 0.00 0.00 91 1011.3
20260905124037 73 0 0.0 0.0 0.00 0.00 0.00 90 1011.1
20260905123537 73 0 0.0 0.0 0.00 0.00 0.00 91 1011.2
20260905123106 73 0 0.0 0.0 0.00 0.00 0.00 91 1011.1
20260905122538 73 0 0.0 0.0 0.00 0.00 0.00 92 1011.1
20260905122037 73 0 0.0 0.0 0.00 0.00 0.00 92 1011.0
20260905121602 73 0 0.0 0.0 0.00 0.00 0.00 94 1011.1
20260905121038 72 0 0.0 0.0 0.00 0.00 0.00 93 1011.1
20260905120540 72 0 0.0 0.0 0.00 0.00 0.00 93 1011.2
20260905120110 72 0 0.0 0.0 0.00 0.00 0.00 94 1011.2
20260905115537 72 0 0.0 0.0 0.00 0.00 0.00 94 1011.2
20260905115037 72 0 0.0 0.0 0.00 0.00 0.00 95 1011.2
20260905114609 71 0 0.0 0.0 0.00 0.00 0.00 96 1010.9
20260905114037 71 0 0.0 0.0 0.00 0.00 0.00 96 1011.0
20260905113540 71 0 0.0 0.0 0.00 0.00 0.00 96 1011.0
20260905113105 71 0 0.0 0.0 0.00 0.00 0.00 97 1011.0
20260905112538 70 0 0.0 0.0 0.00 0.00 0.00 96 1011.0
20260905112036 70 0 0.0 0.0 0.00 0.00 0.00 97 1011.0
20260905111655 70 0 0.0 0.0 0.00 0.00 0.00 96 1011.0
20260905111037 70 0 0.0 0.0 0.00 0.00 0.00 96 1010.9
20260905110537 70 0 0.0 0.0 0.00 0.00 0.00 96 1010.7
20260905110058 70 0 0.0 0.0 0.00 0.00 0.00 96 1010.5
20260905105536 70 0 0.0 0.0 0.00 0.00 0.00 96 1010.4
20260905105035 70 0 0.0 0.0 0.00 0.00 0.00 96 1010.4
20260905104555 70 0 0.0 0.0 0.00 0.00 0.00 96 1010.4
20260905104037 70 0 0.0 0.0 0.00 0.00 0.00 96 1010.3
20260905103538 70 0 0.0 0.0 0.00 0.00 0.00 96 1010.2
20260905103103 70 0 0.0 0.0 0.00 0.00 0.00 96 1010.2
20260905102534 70 0 0.0 0.0 0.00 0.00 0.00 95 1010.2
20260905102037 70 0 0.0 0.0 0.00 0.00 0.00 95 1010.1
20260905101607 70 0 0.0 0.0 0.00 0.00 0.00 95 1010.1
20260905101035 70 0 0.0 0.0 0.00 0.00 0.00 95 1010.0
20260905100538 70 0 0.0 0.0 0.00 0.00 0.00 95 1010.1
20260905100104 70 0 0.0 0.0 0.00 0.00 0.00 95 1010.1
20260905095535 70 0 0.0 0.0 0.00 0.00 0.00 95 1010.0
20260905095035 70 0 0.0 0.0 0.00 0.00 0.00 95 1009.9
20260905094559 70 0 0.0 0.0 0.00 0.00 0.00 95 1009.8
20260905094038 70 0 0.0 0.0 0.00 0.00 0.00 95 1009.7
20260905093535 70 0 0.0 0.0 0.00 0.00 0.00 95 1009.7
20260905093121 70 0 0.0 0.0 0.00 0.00 0.00 95 1009.7
20260905092535 70 0 0.0 0.0 0.00 0.00 0.00 95 1009.6
20260905092037 70 0 0.0 0.0 0.00 0.00 0.00 95 1009.6
20260905091556 70 0 0.0 0.0 0.00 0.00 0.00 95 1009.7
20260905091039 70 0 0.0 0.0 0.00 0.00 0.00 95 1009.7
20260905090541 70 0 0.0 0.0 0.00 0.00 0.00 94 1009.7
20260905085536 71 0 0.0 0.0 0.00 0.00 0.00 95 1009.8
20260905085037 71 0 0.0 0.0 0.00 0.00 0.00 94 1009.8
20260905084602 71 0 0.0 0.0 0.00 0.00 0.00 94 1009.8
20260905084038 71 0 0.0 0.0 0.00 0.00 0.00 94 1009.9
20260905083537 71 0 0.0 0.0 0.00 0.00 0.00 94 1009.9
20260905083059 71 0 0.0 0.0 0.00 0.00 0.00 94 1009.9
20260905082535 71 0 0.0 0.0 0.00 0.00 0.00 94 1010.1
20260905082037 71 0 0.0 0.0 0.00 0.00 0.00 94 1010.2
20260905081556 71 0 0.0 0.0 0.00 0.00 0.00 94 1010.1
20260905081038 71 0 0.0 0.0 0.00 0.00 0.00 94 1010.1
20260905080537 71 0 0.0 0.0 0.00 0.00 0.00 94 1010.2
20260905075537 71 0 0.0 0.0 0.00 0.00 0.00 94 1010.4
20260905075037 71 0 0.0 0.0 0.00 0.00 0.00 94 1010.4
20260905074601 71 0 0.0 0.0 0.00 0.00 0.00 94 1010.4
20260905074038 71 0 0.0 0.0 0.00 0.00 0.00 93 1010.4
20260905073537 71 0 0.0 0.0 0.00 0.00 0.00 93 1010.5
20260905073104 71 0 0.0 0.0 0.00 0.00 0.00 93 1010.5
20260905072537 71 0 0.0 0.0 0.00 0.00 0.00 93 1010.5
20260905072038 71 0 0.0 0.0 0.00 0.00 0.00 93 1010.5
20260905071603 71 0 0.0 0.0 0.00 0.00 0.00 93 1010.5
20260905071037 71 0 0.0 0.0 0.00 0.00 0.00 93 1010.7
20260905070538 71 0 0.0 0.0 0.00 0.00 0.00 93 1010.6
20260905070107 71 0 0.0 0.0 0.00 0.00 0.00 93 1010.7
20260905065540 71 0 0.0 0.0 0.00 0.00 0.00 93 1010.7
20260905065038 71 0 0.0 0.0 0.00 0.00 0.00 93 1010.8
20260905064626 72 0 0.0 0.0 0.00 0.00 0.00 93 1010.8
20260905064037 72 0 0.0 0.0 0.00 0.00 0.00 93 1011.0
20260905063538 72 0 0.0 0.0 0.00 0.00 0.00 92 1011.1
20260905063102 72 0 0.0 0.0 0.00 0.00 0.00 92 1011.2
20260905062536 72 0 0.0 0.0 0.00 0.00 0.00 92 1011.2
20260905062039 72 0 0.0 0.0 0.00 0.00 0.00 92 1011.3
20260905061556 72 0 0.0 0.0 0.00 0.00 0.00 92 1011.3
20260905061036 72 0 0.0 0.0 0.00 0.00 0.00 92 1011.3
20260905060538 72 0 0.0 0.0 0.00 0.00 0.00 92 1011.4
20260905060106 72 0 0.0 0.0 0.00 0.00 0.00 92 1011.5
20260905055537 72 0 0.0 0.0 0.00 0.17 0.00 91 1011.7
20260905055038 72 0 0.0 0.0 0.00 0.17 0.00 91 1011.7
20260905054602 72 0 0.0 0.0 0.00 0.17 0.00 91 1011.8
20260905054042 72 0 0.0 0.0 0.00 0.17 0.00 91 1011.8
20260905053538 72 0 0.0 0.0 0.00 0.17 0.00 91 1011.8
20260905053101 73 0 0.0 0.0 0.00 0.17 0.00 91 1011.8
20260905052539 73 0 0.0 0.0 0.00 0.17 0.00 91 1011.9
20260905052036 73 0 0.0 0.0 0.00 0.17 0.00 91 1012.0
20260905051557 73 0 0.0 0.0 0.00 0.17 0.00 91 1012.0
20260905051036 73 0 0.0 0.0 0.00 0.17 0.00 91 1012.1
20260905050536 73 0 0.0 0.0 0.00 0.17 0.00 91 1012.0
20260905050107 73 0 0.0 0.0 0.00 0.17 0.00 91 1012.1
20260905045537 73 0 0.0 0.0 0.00 0.17 0.00 91 1012.3
20260905045038 73 0 0.0 0.0 0.00 0.17 0.00 92 1012.2
20260905044601 73 0 0.0 0.0 0.00 0.17 0.00 92 1012.1
20260905044038 73 0 0.0 0.0 0.00 0.17 0.00 92 1012.1
20260905043539 73 0 0.0 0.0 0.00 0.17 0.00 92 1012.1
20260905043104 73 0 0.0 0.0 0.00 0.17 0.00 92 1012.1
20260905042537 73 0 0.0 0.0 0.00 0.17 0.00 92 1012.1
20260905042036 73 0 0.0 0.0 0.00 0.17 0.00 92 1012.3
20260905041601 73 0 0.0 0.0 0.00 0.17 0.00 92 1012.3
20260905041038 73 0 0.0 0.0 0.00 0.17 0.00 92 1012.3
20260905040539 73 0 0.0 0.0 0.00 0.17 0.00 92 1012.5
20260905040105 73 0 0.0 0.0 0.00 0.17 0.00 92 1012.5
20260905035538 73 0 0.0 0.0 0.00 0.17 0.17 92 1012.4
20260905035038 73 0 0.0 0.0 0.00 0.17 0.17 92 1012.4
20260905034609 73 0 0.0 0.0 0.00 0.17 0.17 92 1012.4
20260905034041 74 0 0.0 0.0 0.00 0.17 0.17 92 1012.4
20260905033537 74 0 0.0 0.0 0.00 0.17 0.17 92 1012.2
20260905033059 74 0 0.0 0.0 0.00 0.17 0.17 91 1012.3
20260905032536 74 0 0.0 0.0 0.00 0.17 0.17 91 1012.2
20260905032035 74 0 0.0 0.0 0.00 0.17 0.17 92 1012.3
20260905031557 74 0 0.0 0.0 0.00 0.17 0.17 92 1012.3
20260905031035 74 0 0.0 0.0 0.00 0.17 0.17 92 1012.3
20260905030537 74 0 0.0 0.0 0.00 0.17 0.17 92 1012.4
20260905030118 74 0 0.0 0.0 0.00 0.17 0.17 92 1012.4
20260905025537 74 0 0.0 0.0 0.00 0.17 0.17 92 1012.3
20260905025038 74 0 0.0 0.0 0.00 0.17 0.17 92 1012.3
20260905024605 74 0 0.0 0.0 0.00 0.17 0.17 92 1012.3
20260905024036 74 0 0.0 0.0 0.00 0.17 0.17 91 1012.4
20260905023537 74 0 0.0 0.0 0.00 0.17 0.17 91 1012.4
20260905023056 74 0 0.0 0.0 0.00 0.17 0.17 91 1012.5
20260905022538 74 0 0.0 0.0 0.00 0.17 0.17 91 1012.6
20260905022035 74 0 0.0 0.0 0.00 0.17 0.17 92 1012.5
20260905021608 74 0 0.0 0.0 0.00 0.17 0.17 91 1012.3
20260905021037 74 0 0.0 0.0 0.00 0.17 0.17 91 1012.3
20260905020539 75 0 0.0 0.0 0.00 0.17 0.17 91 1012.4
20260905020106 75 0 0.0 0.0 0.00 0.17 0.17 91 1012.4
20260905015537 75 0 0.0 0.0 0.00 0.17 0.17 91 1012.1
20260905015043 75 0 0.0 0.0 0.00 0.17 0.17 91 1012.0
20260905014603 75 0 0.0 0.0 0.00 0.17 0.17 90 1012.0
20260905014035 75 0 0.0 0.0 0.00 0.17 0.17 90 1012.1
20260905013538 75 0 0.0 0.0 0.00 0.17 0.17 90 1011.9
20260905013100 75 0 0.0 0.0 0.00 0.17 0.17 89 1011.9
20260905012540 75 0 0.0 0.0 0.00 0.17 0.17 89 1011.9
20260905012038 76 0 0.0 0.0 0.00 0.17 0.17 88 1011.9
20260905011607 76 0 0.0 0.0 0.00 0.17 0.17 88 1011.9
20260905011037 76 0 0.0 0.0 0.00 0.17 0.17 87 1011.9
20260905010540 76 0 0.0 0.0 0.00 0.17 0.17 87 1011.7
20260905010058 76 0 0.0 0.0 0.00 0.17 0.17 86 1011.6
20260905005537 76 0 0.0 0.0 0.00 0.17 0.17 86 1011.5
20260905005037 76 0 0.0 0.0 0.00 0.17 0.17 85 1011.4
20260905004608 76 0 0.0 0.0 0.00 0.17 0.17 85 1011.4
20260905004038 77 0 0.0 0.0 0.00 0.17 0.17 85 1011.3
20260905003539 77 0 0.0 0.0 0.00 0.17 0.17 84 1011.3
20260905003102 77 0 0.0 3.0 0.00 0.17 0.17 84 1011.2
20260905002537 77 0 0.0 3.0 0.00 0.17 0.17 84 1011.3
20260905002037 77 0 0.0 3.0 0.00 0.17 0.17 83 1011.2
20260905001606 77 0 0.0 0.0 0.00 0.17 0.17 84 1011.1
20260905001038 77 0 0.0 1.0 0.00 0.17 0.17 83 1011.5
20260905000538 78 0 0.0 1.0 0.00 0.17 0.17 83 1011.6
20260905000107 78 0 0.0 3.0 0.00 0.17 0.17 84 1011.7
20260904235536 78 258 1.0 3.0 0.00 0.17 0.17 82 1011.8
20260904235038 78 219 0.0 4.0 0.00 0.17 0.17 82 1011.8
20260904234608 78 238 0.0 4.0 0.00 0.17 0.17 81 1011.9
20260904234040 79 275 0.0 4.0 0.00 0.17 0.17 81 1011.9
20260904233539 79 243 1.0 4.0 0.00 0.17 0.17 80 1011.8
20260904233059 79 197 0.0 3.0 0.00 0.17 0.17 81 1011.7
20260904232538 79 194 0.0 3.0 0.00 0.17 0.17 81 1011.5
20260904232035 79 0 0.0 0.0 0.00 0.17 0.17 82 1011.4
20260904231603 79 0 0.0 2.0 0.00 0.17 0.17 81 1011.5
20260904231035 79 0 0.0 2.0 0.00 0.17 0.17 81 1011.4
20260904230537 79 219 0.0 2.0 0.00 0.17 0.17 81 1010.8
20260904230057 79 0 0.0 1.0 0.00 0.17 0.17 80 1010.9
20260904225536 80 0 0.0 2.0 0.00 0.17 0.17 81 1011.3
20260904225038 80 0 0.0 2.0 0.00 0.17 0.17 80 1011.3
20260904224602 80 0 0.0 3.0 0.00 0.17 0.17 81 1011.3
20260904224035 80 0 0.0 4.0 0.00 0.17 0.17 81 1011.3
20260904223538 80 0 1.0 5.0 0.00 0.17 0.17 80 1011.4
20260904223103 81 180 1.0 5.0 0.00 0.17 0.17 82 1011.6
20260904222539 81 212 1.0 4.0 0.00 0.17 0.17 82 1011.7
20260904222037 81 0 0.0 3.0 0.00 0.17 0.17 81 1011.5
20260904221604 82 0 0.0 3.0 0.00 0.17 0.17 81 1011.4
20260904221039 82 0 0.0 2.0 0.00 0.17 0.17 82 1011.5
20260904220538 82 208 0.0 1.0 0.00 0.17 0.17 81 1011.7
20260904220110 83 0 0.0 1.0 0.00 0.17 0.17 79 1011.9
20260904215537 83 0 0.0 2.0 0.00 0.17 0.17 76 1012.4
20260904215041 83 0 0.0 2.0 0.00 0.17 0.17 74 1012.9
20260904214600 84 5 0.0 2.0 0.00 0.17 0.17 72 1012.9
20260904214034 84 0 0.0 0.0 0.00 0.17 0.17 73 1012.9
20260904213537 84 0 0.0 1.0 0.00 0.17 0.17 74 1012.7
20260904213110 84 0 0.0 2.0 0.00 0.17 0.17 76 1012.4
20260904212538 84 0 0.0 2.0 0.00 0.17 0.17 75 1012.4
20260904212038 84 258 0.0 3.0 0.00 0.17 0.17 75 1012.0
20260904211609 84 0 0.0 6.0 0.00 0.17 0.17 76 1011.8
20260904211037 84 0 1.0 6.0 0.00 0.17 0.17 77 1012.0
20260904210538 85 352 1.0 3.0 0.00 0.17 0.17 80 1012.0
20260904205538 85 0 0.0 0.0 0.00 0.17 0.17 80 1011.4
20260904205037 85 0 0.0 0.0 0.00 0.17 0.17 80 1011.3
20260904204556 85 0 0.0 0.0 0.00 0.17 0.17 78 1011.3
20260904204037 86 0 0.0 0.0 0.00 0.17 0.17 79 1011.5
20260904203536 86 0 0.0 0.0 0.00 0.17 0.17 80 1011.6
20260904203103 86 0 0.0 0.0 0.00 0.17 0.17 75 1011.6
20260904202537 86 0 0.0 0.0 0.00 0.17 0.17 75 1011.5
20260904202037 87 0 0.0 0.0 0.00 0.17 0.17 75 1011.3
20260904201606 87 0 0.0 0.0 0.00 0.17 0.17 75 1011.5
20260904201038 88 0 0.0 0.0 0.00 0.17 0.17 73 1011.4
20260904200538 88 0 0.0 0.0 0.00 0.17 0.17 72 1011.2
20260904200122 89 0 0.0 0.0 0.00 0.17 0.17 71 1010.6
20260904195538 90 0 0.0 0.0 0.00 0.17 0.17 67 1010.9
20260904195039 90 0 0.0 0.0 0.00 0.17 0.17 68 1011.1
20260904194634 91 0 0.0 0.0 0.00 0.17 0.17 63 1011.4
20260904194038 92 0 0.0 1.0 0.00 0.17 0.17 61 1011.7
20260904193538 92 0 0.0 2.0 0.00 0.17 0.17 60 1011.7
20260904193103 93 0 0.0 3.0 0.00 0.17 0.17 59 1011.8
20260904192537 94 338 0.0 3.0 0.00 0.17 0.17 57 1011.7
20260904192038 95 274 0.0 3.0 0.00 0.17 0.17 57 1011.6
20260904191619 95 0 1.0 3.0 0.00 0.17 0.17 56 1011.8
20260904191040 95 47 1.0 5.0 0.00 0.17 0.17 54 1011.7
20260904190538 95 192 1.0 5.0 0.00 0.17 0.17 55 1011.7
20260904190058 95 212 1.0 5.0 0.00 0.17 0.17 53 1011.7
20260904185538 95 230 0.0 3.0 0.00 0.17 0.17 54 1011.7
20260904185038 95 0 0.0 3.0 0.00 0.17 0.17 55 1011.9
20260904184610 95 0 1.0 3.0 0.00 0.17 0.17 55 1011.9